NOAA 17 DEB, 48709

Orbit data source: Space-Track

NOAA 17 DEB, 48709 is space debris in SSO originally from a launch on Mon, 24 Jun 2002 UTC launched from the Air Force Western Test Range (AFWTR). Debris objects in space refer to the collection of defunct objects orbiting the Earth. Examples of debris include non-operational satellites, rocket bodies, and fragments generated from explosions, collisions, or faulty payload assembly.

Loading next visibility...
Identifier
48709, 2002-032AS
Orbit
SSO
Country
Flag of USUS
Related business
Manufacturer
Unknown
Mission
Spacecraft
Bus & Motor
Unknown
Mass
Unknown
Launch date (UTC)
2002-06-24 (24 years ago)
Launch vehicle
Unknown
Launch site
Air Force Western Test Range (AFWTR)
Object type
Payload
Rocket body
Debris
Shape & HBR
Unknown shape, 0.1 m
Radar Cross Section
Small (<0.1 m²)

Expand to show TLE details & history
Last TLE update: 2 days ago

TLE from 2 days ago
0 NOAA 17 DEB
1 48709U 02032AS  26171.43237343  .00005694  00000-0  13207-2 0  9990
2 48709  98.7984 169.3463 0006640 232.3542 127.7052 14.55423411275721
Epoch: 2026-06-20T10:22Z
TLE epoch observation values (Epoch: 2026-06-20T10:22:37.064Z)
Latitude
0.00001°
Longitude
105.04479°
Altitude
713.83 km
Speed
7.497 km/s
True Right ascension
11h 17m 23s
True Declination
0° 00' 00"
Sunlit
Object was in daylight at epoch
Visualization orbit readout
Latitude
Unknown
Longitude
Unknown
Altitude
Unknown
Speed
Unknown
Apparent Right ascension
Unknown
Apparent Declination
Unknown
Sunlit
N/A
Visualization observer readout
Local Sidereal Time
21:37:06
Azimuth
Unknown
Elevation
Unknown
Doppler factor
Unknown
Orbital elements
Apogee altitude
709.809 km
Perigee altitude
700.403 km
Semi-major axis
7,083.243 km
Eccentricity
0.00066
Inclination
98.7984°
RAAN
169.3463°
Arg. of periapsis
232.3542°
True anomaly
127.76537°
Mean anomaly
127.7052°
Eccentric anomaly
127.73529°
Mean motion
3.64078 °/min
Orbital period
98.88 mins
BSTAR
0.0013207
Loading maneuver chart data...
Computing Atmospheric mass density...

Documentation

Showing up to 5 results
|